OCN74 EDDF-CYHZ

Flight info

Callsign OCN74
Flight time N/A
Altitude 36000
Route OBOKA3D/07C OBOKA Z29 TORNU DCT GALSO Q63 ERING L179 UGBET Q60 OKSAW DCT FELCA DCT FADZU DCT BANBA DCT LIMRI/M081F380 NATF ALLRY/N0466F400 DCT CAYLY CABOT5
Aircraft A333/H-SDE3GHIJ2J3J5M1RVWXY/LB2D1

Departure

Time 2026-04-14 10:21
Airport Frankfurt Main Airport (EDDF)

Arrival

Time N/A
Airport Halifax / Stanfield International Airport (CYHZ)
Time Latitude Longitude Altitude Speed Heading
2026-04-14 09:36 50.04933 8.58178 372 ft 0 kts 340°
2026-04-14 10:03 50.04927 8.58182 372 ft 2 kts 338°
2026-04-14 10:03 50.04913 8.58191 372 ft 2 kts 339°
2026-04-14 10:03 50.04899 8.58199 372 ft 2 kts 340°
2026-04-14 10:03 50.04887 8.58206 372 ft 0 kts 340°
2026-04-14 10:04 50.04876 8.58212 372 ft 2 kts 327°
2026-04-14 10:04 50.04865 8.58228 372 ft 2 kts 304°
2026-04-14 10:04 50.04858 8.58249 373 ft 2 kts 284°
2026-04-14 10:04 50.04857 8.58272 373 ft 2 kts 263°
2026-04-14 10:05 50.04858 8.58287 373 ft 0 kts 250°
2026-04-14 10:05 50.04860 8.58293 373 ft 0 kts 249°
2026-04-14 10:11 50.04855 8.58273 373 ft 4 kts 250°
2026-04-14 10:11 50.04838 8.58199 372 ft 9 kts 250°
2026-04-14 10:11 50.04808 8.58072 371 ft 14 kts 250°
2026-04-14 10:12 50.04753 8.57964 370 ft 13 kts 201°
2026-04-14 10:12 50.04665 8.57985 370 ft 13 kts 160°
2026-04-14 10:12 50.04581 8.58023 370 ft 10 kts 187°
2026-04-14 10:12 50.04528 8.57948 370 ft 10 kts 245°
2026-04-14 10:13 50.04514 8.57896 369 ft 6 kts 249°
2026-04-14 10:13 50.04507 8.57867 369 ft 0 kts 250°
2026-04-14 10:13 50.04505 8.57861 369 ft 1 kts 250°
2026-04-14 10:14 50.04494 8.57814 369 ft 7 kts 250°
2026-04-14 10:14 50.04468 8.57705 368 ft 13 kts 250°
2026-04-14 10:14 50.04427 8.57533 367 ft 19 kts 250°
2026-04-14 10:14 50.04372 8.57303 365 ft 25 kts 250°
2026-04-14 10:15 50.04305 8.57021 362 ft 29 kts 250°
2026-04-14 10:15 50.04239 8.56746 360 ft 25 kts 250°
2026-04-14 10:15 50.04180 8.56498 359 ft 25 kts 250°
2026-04-14 10:15 50.04115 8.56228 357 ft 27 kts 250°
2026-04-14 10:16 50.04048 8.55949 356 ft 26 kts 250°
2026-04-14 10:16 50.03991 8.55708 354 ft 23 kts 250°
2026-04-14 10:16 50.03937 8.55480 353 ft 22 kts 250°
2026-04-14 10:16 50.03882 8.55254 352 ft 23 kts 250°
2026-04-14 10:17 50.03823 8.55007 350 ft 25 kts 250°
2026-04-14 10:17 50.03762 8.54751 349 ft 25 kts 250°
2026-04-14 10:17 50.03706 8.54516 348 ft 18 kts 250°
2026-04-14 10:17 50.03680 8.54407 347 ft 4 kts 250°
2026-04-14 10:18 50.03600 8.54316 346 ft 10 kts 166°
2026-04-14 10:18 50.03513 8.54365 345 ft 10 kts 161°
2026-04-14 10:18 50.03493 8.54417 345 ft 7 kts 79°
2026-04-14 10:19 50.03501 8.54459 345 ft 0 kts 71°
2026-04-14 10:20 50.03505 8.54477 346 ft 11 kts 71°
2026-04-14 10:20 50.03614 8.54937 349 ft 78 kts 70°
2026-04-14 10:20 50.03879 8.56041 355 ft 138 kts 70°
2026-04-14 10:21 50.04272 8.57676 449 ft 177 kts 69°
2026-04-14 10:21 50.04656 8.59426 1180 ft 169 kts 70°
2026-04-14 10:21 50.05004 8.61139 1889 ft 167 kts 69°
2026-04-14 10:21 50.05370 8.62807 2378 ft 166 kts 65°
2026-04-14 10:22 50.05785 8.64562 2529 ft 182 kts 67°
2026-04-14 10:22 50.06236 8.66518 2732 ft 197 kts 67°
2026-04-14 10:22 50.06719 8.68622 2921 ft 219 kts 68°
2026-04-14 10:22 50.07402 8.70744 3480 ft 220 kts 45°
2026-04-14 10:23 50.08678 8.72053 3942 ft 228 kts 21°
2026-04-14 10:23 50.10190 8.73036 4319 ft 244 kts 23°
2026-04-14 10:23 50.11768 8.74103 4839 ft 254 kts 23°
2026-04-14 10:23 50.13400 8.75206 5531 ft 257 kts 23°
2026-04-14 10:24 50.15027 8.76308 6199 ft 260 kts 22°
2026-04-14 10:24 50.16709 8.77445 6841 ft 264 kts 22°
2026-04-14 10:24 50.18388 8.78581 7438 ft 269 kts 22°
2026-04-14 10:24 50.20232 8.79175 8006 ft 274 kts 356°
2026-04-14 10:25 50.22038 8.78376 8603 ft 277 kts 332°
2026-04-14 10:25 50.23597 8.76586 9216 ft 281 kts 312°
2026-04-14 10:25 50.24761 8.74122 9837 ft 284 kts 302°
2026-04-14 10:25 50.25789 8.71513 10389 ft 290 kts 300°
2026-04-14 10:26 50.26830 8.68700 10645 ft 308 kts 299°
2026-04-14 10:26 50.27916 8.65719 10879 ft 326 kts 299°
2026-04-14 10:26 50.29066 8.62546 11102 ft 344 kts 299°
2026-04-14 10:26 50.30271 8.59212 11406 ft 359 kts 299°
2026-04-14 10:27 50.31495 8.55826 12098 ft 361 kts 298°
2026-04-14 10:27 50.32725 8.52414 12739 ft 364 kts 298°
2026-04-14 10:27 50.33987 8.48907 13174 ft 372 kts 298°
2026-04-14 10:27 50.35262 8.45362 13062 ft 373 kts 298°
2026-04-14 10:28 50.36517 8.41868 13116 ft 366 kts 298°
2026-04-14 10:28 50.37754 8.38418 13149 ft 366 kts 298°
2026-04-14 10:28 50.38999 8.34942 13129 ft 366 kts 298°
2026-04-14 10:28 50.40249 8.31448 13138 ft 366 kts 298°
2026-04-14 10:29 50.41488 8.27981 13144 ft 366 kts 298°
2026-04-14 10:29 50.42739 8.24470 13154 ft 367 kts 298°
2026-04-14 10:29 50.43990 8.20957 13254 ft 374 kts 298°
2026-04-14 10:29 50.45237 8.17452 14083 ft 370 kts 298°
2026-04-14 10:30 50.46483 8.13950 14773 ft 370 kts 298°
2026-04-14 10:30 50.47744 8.10394 15265 ft 376 kts 298°
2026-04-14 10:30 50.49019 8.06795 15833 ft 379 kts 298°
2026-04-14 10:30 50.50290 8.03200 16420 ft 380 kts 298°
2026-04-14 10:31 50.51584 7.99539 16940 ft 384 kts 298°
2026-04-14 10:31 50.52881 7.95864 17424 ft 388 kts 298°
2026-04-14 10:31 50.54190 7.92148 17938 ft 391 kts 298°
2026-04-14 10:31 50.55492 7.88444 18451 ft 394 kts 299°
2026-04-14 10:32 50.56821 7.84662 19008 ft 395 kts 299°